Погода в Лобиту

Ангола     12˚22′37″S   13˚34′19″E
темп.,
°C
ветер,
м/с
пор.,
м/с
влажн.,
%
обл.,
%
осадки,
мм/ч
давл.,
гПа
погр.,
м
5 декабря, сб
сб501:00+23˚з2282100 0.0 1014241
04:00+23˚зюз2283100 0.0 1011334
07:00+23˚зюз228197 0.0 1014322
10:00+24˚з337897 0.0 1013352
13:00+26˚зсз447278 0.0 1011468
16:00+25˚зсз44753 0.0 1009488
19:00+23˚з338221 0.0 1012435
22:00+23˚зюз2281100 0.0 1014399
6 декабря, вс
вс601:00+23˚зюз2280100 0.1 1014313
04:00+23˚зюз2281100 0.0 1013294
07:00+24˚зюз227999 0.0 1015329
10:00+26˚сз327094 0.0 1015616
13:00+26˚зсз447172 0.0 1012474
16:00+25˚зсз44730 0.0 1010437
19:00+24˚з227910 0.0 1012345
22:00+24˚зюз2279100 0.0 1014377
7 декабря, пн
пн701:00+23˚зюз238064 0.0 1013247
04:00+23˚зюз228339 0.0 1012155
07:00+24˚з228067 0.0 1014260
10:00+25˚сз437725 0.0 1014393
13:00+26˚зсз447541 0.0 1012457
16:00+25˚зсз437835 0.0 1011487
19:00+24˚з228250 0.0 1013432
22:00+24˚зюз2279100 0.0 1015371
8 декабря, вт
вт801:00+23˚зюз328370 0.0 1014289
04:00+23˚зюз328496 0.0 1014355
07:00+23˚зюз118198 0.0 1015303
10:00+25˚зсз327699 0.0 1015440
13:00+25˚зсз447492 0.0 1012425
16:00+25˚сз337564 0.0 1011496
19:00+24˚з227782 0.0 1014526
22:00+23˚з1178100 0.0 1016288
9 декабря, ср
ср901:00+23˚зюз227986 0.0 1014222
04:00+22˚ююз228049 0.0 1013174
07:00+23˚з117775 0.0 1014232
10:00+25˚сз3370100 0.0 1014418
13:00+25˚сз556976 0.0 1011392
16:00+25˚сз3468100 0.0 1010539
19:00+24˚з2270100 0.0 1012496
22:00+23˚юз227412 0.0 1015286